Regional Weather Roundup
Issued by NWS Jackson, KY

Home | Current Version | Previous Version | Graphics & Text | Print | Product List | Glossary Off
Versions: 1 2 3 4 5 6 7 8 9 10 11 12 13 14 15 16 17 18 19 20 21 22 23 24 25 26 27 28 29 30 31 32 33 34 35 36 37 38 39 40 41 42 43 44 45 46 47 48 49 50

000
ASUS43 KJKL 020110
RWRJKL

EAST KENTUCKY HOURLY WEATHER ROUNDUP
NATIONAL WEATHER SERVICE JACKSON KY
900 PM EDT WED JUL 01 2015

NOTE: "FAIR" INDICATES FEW OR NO CLOUDS BELOW 12,000 FEET WITH
NO SIGNIFICANT WEATHER AND/OR OBSTRUCTIONS TO VISIBILITY.

* THESE REPORTS ARE NOT UNDER NWS QUALITY CONTROL AND MAY NOT
  REPORT WEATHER SUCH AS PRECIPITATION AND FOG.

KYZ079-080-083-085-087-088-110-112-115-119-120-020200
...EASTERN KENTUCKY...

CITY           SKY/WX    TMP DP  RH WIND       PRES   REMARKS
JACKSON        MOCLDY    70  67  90 CALM      29.96R
LONDON         LGT RAIN  72  67  84 S3        29.96R
SOMERSET*      HVY RAIN  66  66 100 CALM      29.96S
MONTICELLO*    MOCLDY    72  66  83 SW7       30.00R FOG
MIDDLESBORO*   CLOUDY    72  68  88 S3        29.97S
HARLAN APT*      N/A     68  68 100 CALM      29.97S VSB 1/2
HAZARD APT*    CLOUDY    72  68  88 SW3       29.96R
PIKEVILLE APT* MOCLDY    70  66  88 CALM      29.96S
BIG SANDY*     CLOUDY    69  68  97 CALM      29.95R FOG
MOREHEAD APT*  CLOUDY    70  66  88 CALM      29.96R FOG
$$

KYZ035-036-041-042-044-050-067-078-099-020200
...CENTRAL KENTUCKY...

CITY           SKY/WX    TMP DP  RH WIND       PRES   REMARKS
MT STERLING*   CLOUDY    68  68 100 CALM      29.95S FOG
FLEMING/MASON* MOCLDY    72  66  83 CALM      29.94R
DANVILLE*      CLOUDY    72  70  94 CALM      29.95R
RICHMOND*      CLOUDY    72  66  83 CALM      29.94R
LEXINGTON      CLOUDY    72  69  90 SE5       29.93S FOG
FRANKFORT      MOCLDY    72  68  87 CALM      29.91S FOG
$$

KYZ091>093-OHZ055-061-077-WVZ005-015-034-035-042-020200
...SOUTHERN OHIO/WEST VIRGINIA...

CITY           SKY/WX    TMP DP  RH WIND       PRES   REMARKS
COVINGTON      CLOUDY    73  64  73 CALM      29.92R
COLUMBUS       MOCLDY    72  57  59 NW6       29.91R
DAYTON         MOCLDY    74  62  66 N3        29.94R
WILMINGTON     PTCLDY    70  61  73 CALM      29.92R
HUNTINGTON     MOCLDY    73  68  84 CALM      29.91R
CHARLESTON     PTCLDY    72  68  87 CALM      29.92R
PINEVILLE*     CLOUDY    69  69 100 MISG      30.02S FOG
BECKLEY        CLOUDY    68  63  84 SW5       30.00S HAZE
BLUEFIELD      CLOUDY    70  63  78 W8        30.03S
$$

VAZ002-007-008-TNZ017-027-036-066-071-020200
...SOUTHWEST VIRGINIA/EAST TENNESSEE...

CITY           SKY/WX    TMP DP  RH WIND       PRES   REMARKS
WISE*          CLOUDY    66  64  94 SW6       30.03S
JONESVILLE*      N/A    N/A N/A N/A MISG        N/A
ABINGDON*      CLOUDY    68  68  98 SW9       30.02F
BRISTOL        CLOUDY    69  66  90 CALM      30.00F
OAK RIDGE      CLOUDY    72  67  84 CALM      29.99R
CROSSVILLE     CLOUDY    67  62  84 W5        30.03R
NASHVILLE      CLOUDY    70  69  97 SW5       29.99R
$$

...KEY TO REMARKS...
VSB - VISIBILITY IN MILES
WCI - WIND CHILL INDEX
HX  - HEAT INDEX

$$


USA.gov is the U.S. government's official web portal to all federal, state and local government web resources and services.